Location: Coopersdale
(40.3556°N, 78.9372°W)
Time: 10:21:59
(UTC+00:00)

Vanguard 1 - Pass Details

Date: 23 January 2021
Orbit: 649 x 3834 km, 34.2° (Epoch: 07 March)

Event Time Altitude Azimuth Distance (km) Brightness Sun altitude
Rises 01:19:17 0° 285° (WNW) 7,963 15.7 -33.5°
Reaches altitude 10° 01:25:48 10° 278° (W) 6,787 15.1 -34.7°
Maximum altitude 01:43:02 33° 225° (SW) 4,173 13.4 -38.0°
Enters shadow 01:53:45 13° 171° (S) 4,448 13.2 -40.0°
